Flag Weather past 2 weeks in Sarnen, Obwalden, Switzerland

Now
40 °F

Quite cool.


Feels Like: 40 °F
Forecast: 43 / 56 °F
Wind: 1 mph from West

Location: Giswil

Current Time: Nov 28, 2014 at 9:55:41 AM

Latest Report: Nov 28, 2014 at 9:00 AM


Visibility: N/A

Pressure: 29.80 "Hg

Humidity: 100%

Dew point: 40 °F

Location of SarnenLocation

Historic Weather in Sarnen — Graph

°F

Sarnen temperature yesterday

Maximum temperature yesterday: 47 °F (at 12:00 AM)
Minimum temperature yesterday: 43 °F (at 11:00 PM)
Average temperature yesterday: 45 °F

Past Weeks' High & Low Weather Summary

 TemperatureHumidityPressure
High57 °F (Nov 24, 3:00 PM)100% (Nov 13, 8:00 AM)30.33 "Hg (Nov 13, 8:00 AM)
Low30 °F (Nov 20, 2:00 AM)69% (Nov 19, 2:00 PM)29.59 "Hg (Nov 15, 6:00 PM)
Average43 °F98%30.00 "Hg
* Reported Nov 13 8:00 AM — Nov 28 8:00 AM, Sarnen, Weather by CustomWeather, © 2014

Note: Actual official high and low records may vary slightly from our data, if they occured in-between our weather recording intervals... More about our weather records

Advertising

Sarnen weather history for previous 24 hours

 ConditionsComfort  
Time TempWeatherWind HumidityBarometerVisibility
8:00 AM
Nov 28
40 °FQuite cool.2 mph100%29.79 "HgN/A
7:00 AM41 °FQuite cool.3 mph100%29.79 "HgN/A
6:00 AM41 °FQuite cool.1 mph100%29.79 "HgN/A
5:00 AM41 °FQuite cool.1 mph100%29.79 "HgN/A
4:00 AM42 °FQuite cool.1 mph100%29.80 "HgN/A
3:00 AM42 °FQuite cool.No wind100%29.80 "HgN/A
2:00 AM42 °FQuite cool.1 mph100%29.81 "HgN/A
1:00 AM42 °FQuite cool.2 mph100%29.81 "HgN/A
12:00 AM43 °FQuite cool.No wind100%29.81 "HgN/A
11:00 PM
Nov 27
43 °FQuite cool.2 mph100%29.83 "HgN/A
10:00 PM43 °FQuite cool.1 mph100%29.83 "HgN/A
9:00 PM44 °FQuite cool.1 mph100%29.81 "HgN/A
8:00 PM44 °FQuite cool.1 mph100%29.81 "HgN/A
7:00 PM45 °FQuite cool.1 mph100%29.82 "HgN/A
6:00 PM45 °FCool.1 mph100%29.80 "HgN/A
5:00 PM45 °FCool.1 mph100%29.80 "HgN/A
4:00 PM46 °FCool.1 mph100%29.79 "HgN/A
3:00 PM46 °FCool.2 mph99%29.80 "HgN/A
2:00 PM46 °FCool.1 mph97%29.80 "HgN/A
1:00 PM46 °FCool.1 mph99%29.81 "HgN/A
12:00 PM46 °FCool.2 mph100%29.82 "HgN/A
11:00 AM45 °FCool.1 mph100%29.84 "HgN/A
10:00 AM45 °FQuite cool.No wind100%29.83 "HgN/A
9:00 AM45 °FQuite cool.1 mph100%29.83 "HgN/A
Weather by CustomWeather, © 2014

See weather overviewHow to use our weather pages